Location: Little Buffalo State Park
(40.4572°N, 77.1689°W)
Time: 23:48:50
(UTC-04:00)

N. Korean satellite - Visible Passes

Search period start: 18 March 2019 00:00
Search period end: 28 March 2019 00:00
Orbit: 455 x 511 km, 97.2° (Epoch: 18 March)

Date Brightness Start Highest point End Pass type
(mag) Time Alt. Az. Time Alt. Az. Time Alt. Az.
19 Mar 9.4 06:40:12 10° NE 06:43:07 24° E 06:46:02 10° SSE visible
20 Mar 10.2 06:16:45 10° ENE 06:18:09 12° E 06:19:34 10° ESE visible
23 Mar 9.7 06:34:30 10° NE 06:37:15 21° E 06:40:01 10° SE visible
24 Mar 10.5 06:11:45 10° E 06:12:15 10° E 06:12:46 10° E visible
27 Mar 9.8 06:28:47 10° NE 06:31:20 18° E 06:33:53 10° SE visible
